Temperature
10 8 8 8 9 9 10 10 10 10 10 9 8 9 8 8 8 7 7 7 6 6 5 5 5 6 6 6 5 6 6 6 6 6 6 6 6 6 6 6 6 6 6 6
9 7 8 9 9 9 9 9 9 9 9 8 8 8 8 7 6 6 6 5 5 5 4 4 4 5 5 5 5 5 5 5 5 5 5 5 6 5 6 6 6 6 6 6
8 7 8 8 8 8 8 8 8 8 7 8 7 7 7 6 6 6 5 5 5 4 4 4 4 4 4 4 4 4 5 5 5 5 5 5 5 5 5 5 5 5 5 5
7 8 8 7 7 7 7 8 7 7 6 6 7 6 6 6 5 5 5 4 4 4 4 3 3 3 4 4 4 4 4 4 4 4 4 4 4 4 5 5 5 5 5 5
6 6 6 6 6 6 6 7 6 6 6 5 6 5 5 6 5 4 4 4 4 3 3 3 3 3 3 3 3 3 3 3 4 3 3 4 4 4 4 4 4 4 4 4
6 6 6 6 6 6 6 6 6 6 5 4 5 5 5 4 4 4 4 3 3 3 3 3 2 3 3 3 3 3 3 3 3 3 3 3 3 3 3 3 3 3 3 3
6 5 5 5 5 5 5 4 4 4 4 4 5 5 4 4 4 3 3 3 3 2 2 2 2 2 2 2 2 2 2 3 3 3 3 3 2 2 3 3 3 3 3 3
5 5 4 4 4 4 4 5 4 4 5 5 4 4 3 3 3 3 3 3 2 2 1 1 1 1 1 1 2 2 2 2 2 2 2 2 2 2 2 2 2 2 2 2
4 4 4 4 4 4 4 4 4 4 3 3 4 4 3 2 2 2 2 1 1 0 0 1 1 1 1 1 1 1 1 1 1 1 2 1 1 1 1 1 1 1 2 2
3 2 3 3 3 3 3 3 3 3 3 4 5 4 3 1 1 1 1 0 0 -0 -0 -0 -0 -0 -0 -0 0 0 1 1 1 1 1 1 1 1 1 1 1 1 1 1
3 2 2 2 1 2 2 2 2 2 3 3 3 3 2 2 1 0 -0 0 -0 -1 -1 -1 -1 -1 -1 -1 -0 -0 -0 0 0 0 0 0 0 0 0 0 0 0 0 0
2 1 1 1 1 1 1 1 1 1 2 2 2 2 1 0 -0 -0 -0 -0 -1 -1 -2 -2 -2 -2 -1 -1 -1 -1 -1 -1 -0 -0 -0 -0 -0 -0 -0 -0 -0 -0 -0 -0
1 0 0 1 0 -0 -0 0 -0 -0 0 1 1 1 -0 -0 -0 -1 -1 -1 -2 -2 -2 -2 -2 -2 -2 -2 -2 -2 -2 -1 -1 -1 -1 -1 -1 -1 -1 -1 -1 -1 -1 -1
1 -1 -0 1 1 -1 -1 -1 -1 -1 -1 0 0 1 0 -1 -1 -2 -2 -2 -2 -3 -3 -3 -3 -3 -3 -3 -2 -2 -2 -2 -2 -2 -2 -1 -1 -1 -1 -1 -1 -1 -1 -1
-0 -1 -1 -1 -0 -0 -1 -1 -2 -2 -1 -1 -0 -0 -0 -1 -2 -2 -2 -2 -3 -3 -3 -4 -4 -4 -3 -3 -3 -3 -3 -3 -3 -2 -2 -2 -2 -2 -2 -2 -2 -2 -2 -2
-1 -2 -2 -2 -1 -1 -1 -1 -2 -2 -2 -2 -2 -2 -2 -1 -2 -2 -3 -3 -3 -4 -4 -4 -4 -4 -4 -4 -4 -4 -4 -4 -4 -3 -3 -3 -3 -3 -3 -3 -3 -3 -3 -3
-2 -3 -2 -1 -2 -2 -2 -2 -2 -3 -3 -3 -2 -2 -2 -3 -3 -3 -3 -4 -4 -4 -5 -5 -5 -5 -5 -5 -5 -5 -5 -5 -4 -4 -4 -4 -4 -3 -3 -3 -3 -3 -3 -3
-3 -3 -2 -2 -2 -2 -1 -2 -3 -3 -4 -4 -4 -3 -4 -4 -3 -4 -4 -4 -5 -5 -5 -5 -5 -5 -5 -5 -5 -5 -5 -5 -5 -5 -5 -5 -5 -4 -4 -4 -4 -4 -4 -4
-3 -3 -2 -2 -2 -2 -1 -3 -4 -4 -4 -5 -4 -5 -4 -4 -4 -4 -4 -5 -5 -5 -5 -5 -6 -6 -6 -6 -6 -6 -6 -6 -6 -6 -6 -5 -5 -5 -5 -5 -5 -5 -5 -5
-4 -4 -3 -2 -2 -2 -2 -4 -4 -4 -4 -5 -5 -5 -5 -5 -5 -5 -5 -5 -6 -6 -6 -6 -6 -6 -6 -6 -6 -6 -6 -6 -6 -6 -6 -6 -6 -6 -6 -6 -6 -6 -6 -6
-5 -4 -4 -3 -3 -3 -4 -5 -4 -4 -4 -5 -5 -5 -6 -6 -6 -6 -6 -6 -6 -6 -6 -6 -7 -7 -7 -7 -7 -7 -7 -7 -7 -7 -7 -7 -7 -7 -6 -6 -6 -6 -6 -6
-5 -5 -5 -4 -3 -4 -6 -6 -5 -5 -5 -5 -5 -5 -6 -6 -7 -7 -7 -7 -7 -7 -7 -7 -7 -7 -7 -8 -8 -8 -8 -8 -8 -8 -8 -7 -7 -7 -7 -7 -7 -7 -7 -7
-5 -5 -5 -4 -4 -5 -5 -5 -5 -5 -6 -6 -6 -6 -7 -7 -7 -7 -8 -7 -8 -8 -8 -8 -8 -8 -8 -8 -8 -8 -8 -8 -8 -8 -8 -8 -8 -8 -8 -8 -8 -8 -8 -8
-6 -6 -5 -6 -6 -5 -5 -6 -6 -6 -6 -6 -6 -7 -7 -7 -8 -8 -8 -8 -8 -8 -8 -9 -9 -8 -8 -9 -9 -9 -9 -9 -9 -9 -9 -9 -9 -9 -9 -9 -9 -9 -9 -9
-6 -7 -7 -7 -7 -6 -6 -6 -6 -6 -7 -7 -7 -7 -7 -8 -8 -8 -8 -8 -9 -9 -9 -9 -9 -9 -9 -9 -9 -9 -9 -9 -9 -9 -9 -9 -9 -9 -9 -9 -9 -9 -9 -9
-7 -8 -7 -6 -7 -7 -6 -6 -6 -7 -7 -7 -8 -8 -8 -8 -8 -9 -9 -9 -9 -9 -9 -9 -9 -10 -9 -10 -10 -10 -10 -10 -10 -10 -10 -10 -10 -10 -10 -10 -10 -10 -10 -10
Wind_Speed
3 2 4 4 5 6 5 6 8 5 1 5 8 8 5 3 1 1 1 1 2 2 2 3 3 2 3 3 4 5 5 4 4 3 3 3 2 1 1 2 2 2 2 2
2 4 4 4 4 6 7 8 7 3 1 3 6 7 3 3 3 2 1 1 0 2 2 3 3 3 2 2 2 3 4 5 4 3 2 2 2 1 1 2 2 2 2 1
4 1 2 3 4 5 7 7 6 4 3 4 3 5 4 3 2 2 1 1 1 1 2 2 2 2 2 2 1 1 3 4 3 3 2 2 2 1 1 1 1 1 2 2
2 2 2 3 4 4 6 3 5 4 3 4 5 5 4 4 3 2 2 0 0 0 1 2 2 2 2 2 2 1 1 3 3 3 3 4 3 2 2 2 1 1 2 2
1 2 2 2 3 4 3 3 4 5 5 5 5 5 4 4 3 4 2 1 0 0 1 1 2 2 2 2 2 2 2 1 2 2 3 3 2 2 1 2 2 2 1 1
2 1 2 2 3 2 2 2 3 3 2 5 7 6 4 3 4 2 2 1 1 1 1 2 2 3 2 2 2 2 1 1 1 1 2 3 3 2 2 2 2 2 1 1
2 2 0 2 2 1 1 1 1 1 3 6 4 4 4 1 3 3 1 1 1 1 1 1 2 2 2 2 2 1 1 1 1 0 1 2 3 3 3 3 3 2 2 2
3 3 2 1 1 2 3 2 3 3 3 3 1 4 2 3 4 4 3 2 3 3 2 2 2 1 1 1 1 1 0 1 1 1 1 1 2 2 2 2 2 3 3 3
2 2 1 2 1 2 2 2 2 1 3 3 4 3 1 3 3 3 3 4 3 3 2 2 2 2 1 1 0 0 0 0 1 1 1 2 1 2 2 2 2 2 2 2
2 3 1 1 0 1 2 1 0 2 3 5 4 4 3 2 1 1 2 2 2 2 2 3 3 2 2 2 1 0 0 0 1 1 1 2 2 2 2 2 2 2 2 2
2 2 1 1 3 2 1 2 2 3 3 3 4 3 1 3 2 1 1 1 2 2 2 2 2 2 2 2 2 2 2 1 1 1 1 1 1 2 2 2 2 2 2 2
2 1 3 2 1 2 1 1 2 3 4 4 4 3 2 4 3 2 2 2 2 2 2 3 3 3 3 2 2 2 2 2 2 2 1 1 1 1 2 2 2 2 2 2
1 0 2 2 1 1 1 2 2 2 2 4 5 4 1 3 3 3 3 3 3 3 4 4 4 3 3 3 3 3 3 2 3 3 2 2 2 1 2 2 2 2 2 2
1 2 4 5 4 1 3 3 2 3 4 5 7 6 3 2 2 2 2 2 2 3 3 4 4 3 4 3 3 4 4 3 3 3 2 2 2 2 2 2 2 2 2 2
1 3 4 5 5 3 5 5 5 7 7 6 7 7 5 2 1 1 1 1 2 2 3 3 3 4 4 4 4 4 4 4 3 3 3 3 2 2 2 2 2 2 2 3
1 2 2 5 4 4 7 7 8 8 7 8 8 9 4 2 1 1 1 1 2 3 3 3 4 4 4 5 5 4 4 4 3 3 3 3 3 2 2 2 2 1 2 2
2 2 2 4 2 4 7 7 7 5 5 5 8 8 2 3 3 2 2 2 2 3 3 3 4 4 4 4 4 4 4 4 3 3 3 3 3 2 3 3 2 2 2 2
3 3 2 2 2 5 5 1 3 4 4 4 4 3 2 3 3 2 1 1 3 3 3 3 4 4 4 4 4 4 4 4 4 3 4 3 3 3 3 3 3 3 2 3
3 3 2 2 4 6 2 1 2 3 4 3 5 5 4 3 3 2 2 2 2 2 3 3 3 3 4 4 4 4 4 4 4 4 4 4 3 2 3 3 3 3 2 3
1 1 3 3 4 5 3 1 1 1 3 2 2 3 2 2 2 3 4 4 4 3 3 3 3 3 4 4 4 4 4 4 4 5 4 4 3 3 3 3 3 3 3 3
1 2 4 5 5 5 2 1 1 2 5 2 1 1 1 2 3 3 3 4 4 3 4 3 3 3 4 4 4 4 4 4 5 5 5 5 4 4 3 3 3 3 3 3
4 4 4 3 5 6 1 2 3 3 2 2 1 1 0 1 2 3 3 3 4 4 4 4 3 4 4 4 3 4 4 5 5 5 5 5 4 4 3 3 3 3 3 3
4 4 3 5 5 1 4 3 1 1 1 2 1 1 0 1 2 3 3 3 3 3 3 3 3 4 4 4 3 3 5 5 5 5 5 5 5 4 4 3 3 3 2 2
3 1 2 3 4 2 2 1 0 1 1 2 1 1 1 2 2 2 2 3 3 3 3 3 3 3 4 4 4 4 5 5 4 4 5 4 4 4 4 3 3 2 2 2
3 3 3 4 4 3 2 1 1 2 2 2 2 1 1 1 2 2 2 2 2 3 3 3 3 4 4 4 4 5 5 4 4 4 4 4 4 4 3 3 2 3 2 3
3 4 4 5 3 3 3 1 1 2 2 2 1 2 2 1 2 2 2 2 2 3 3 3 3 4 4 4 4 4 4 4 4 4 4 4 3 3 3 3 3 4 5 7
Wind_Direction
175 210 225 230 231 260 275 265 265 266 226 223 232 244 237 219 177 170 164 135 151 145 100 79 69 85 106 121 138 145 142 144 135 146 151 147 147 131 95 85 93 96 112 115
186 232 261 277 267 266 269 271 276 284 308 260 252 254 223 189 183 167 144 86 75 112 92 82 75 69 69 98 121 152 149 148 145 151 164 162 151 158 125 97 114 127 121 111
218 270 282 266 276 272 261 253 267 278 309 257 267 267 202 183 164 141 105 73 62 122 135 109 82 74 74 62 68 115 144 142 142 129 121 123 114 117 134 149 141 125 160 169
259 291 310 271 268 270 258 284 281 264 264 252 208 258 220 185 185 188 193 220 313 62 111 111 98 81 70 59 50 36 107 139 149 142 149 155 167 186 201 187 183 185 182 172
297 348 307 284 298 288 272 309 283 257 246 265 228 239 253 172 210 223 213 212 259 75 113 118 106 93 82 69 60 33 31 85 137 163 177 181 193 196 166 170 173 201 221 186
260 348 354 318 318 293 301 313 289 246 241 254 224 208 261 211 219 200 195 184 113 53 51 81 86 86 74 76 74 46 32 23 46 176 191 195 200 183 168 188 196 198 211 221
257 212 104 350 333 298 314 88 355 256 219 242 201 202 239 124 86 105 101 144 113 79 58 79 85 83 77 74 69 54 38 5 355 301 207 217 217 202 192 200 201 204 213 221
268 258 175 40 1 255 244 199 192 233 251 272 224 225 213 104 92 75 50 59 72 65 51 66 81 91 81 87 87 84 52 334 313 307 267 253 237 213 209 218 211 209 215 227
285 268 70 71 358 312 263 239 263 266 284 275 235 223 219 90 81 73 52 51 51 48 35 32 49 55 63 55 95 168 231 284 302 293 287 259 254 242 228 231 232 223 231 237
311 278 290 61 223 279 302 311 158 217 247 261 250 219 221 192 204 78 26 27 28 25 26 26 30 24 30 25 19 47 293 251 275 288 292 288 272 269 257 236 229 230 234 235
312 249 268 240 204 212 203 217 228 239 249 239 267 258 25 157 148 130 46 20 26 30 20 12 16 27 34 34 29 21 9 358 328 296 296 303 279 283 273 247 239 237 241 231
334 277 260 241 80 351 294 239 199 211 250 235 254 262 25 68 69 70 47 34 46 45 25 21 24 26 22 21 17 9 4 357 341 331 322 301 284 278 281 272 260 243 236 235
25 155 301 304 303 336 300 275 252 244 258 244 242 254 74 59 44 51 44 33 31 35 29 27 26 17 7 5 7 1 359 347 334 331 326 326 322 286 275 273 282 263 238 238
101 214 218 242 273 266 267 261 231 204 225 248 243 260 279 315 12 13 15 16 24 28 25 21 13 4 359 358 356 354 349 345 336 335 331 320 315 305 290 280 277 270 251 233
133 234 245 264 276 264 256 251 222 217 230 238 259 271 279 285 273 301 349 6 23 14 10 7 359 353 352 351 350 351 342 340 338 335 325 309 306 316 310 300 280 269 267 260
200 234 260 267 254 259 271 258 234 235 242 247 265 275 277 287 349 5 342 335 334 336 350 353 349 346 344 341 340 339 333 329 328 322 315 313 315 322 312 300 295 283 260 254
197 202 238 261 275 300 271 244 218 220 220 216 239 255 313 335 331 324 315 315 324 340 343 339 335 334 334 332 331 328 324 326 327 320 316 314 316 319 313 305 304 289 282 271
197 211 236 267 301 250 239 99 171 207 240 236 253 285 307 295 310 321 357 351 336 332 328 329 332 332 331 332 336 332 329 329 323 317 313 312 315 313 312 311 301 295 289 283
216 204 229 236 256 263 255 118 133 202 270 253 253 283 315 332 327 319 3 8 339 327 326 325 331 331 334 334 334 334 332 330 329 319 314 313 311 308 308 303 298 298 295 288
292 212 219 230 244 250 262 14 4 124 279 313 251 275 304 2 301 299 357 1 356 359 357 350 347 345 338 333 339 339 331 337 336 328 322 320 315 308 297 293 294 297 293 290
182 213 223 236 244 259 281 310 68 177 262 323 304 280 182 217 254 309 348 358 2 1 355 353 349 340 332 335 344 338 334 332 325 324 325 321 314 303 292 291 290 287 288 288
190 198 209 214 231 253 155 129 183 234 336 1 354 346 252 283 325 339 347 349 353 356 353 351 346 338 338 346 348 337 328 324 327 326 324 322 320 314 314 308 304 298 293 292
202 202 205 206 221 226 160 187 225 51 330 318 324 323 275 291 299 319 328 335 346 344 342 344 341 335 340 348 345 327 321 326 327 328 326 324 323 323 321 316 312 311 304 293
220 213 233 258 262 252 199 193 316 332 294 304 300 273 246 267 286 311 322 332 338 339 341 341 339 333 332 338 338 326 321 324 326 327 324 324 327 326 326 321 313 307 302 295
227 185 220 249 276 310 255 224 262 297 309 318 333 320 284 268 289 298 308 316 325 334 337 338 332 324 323 329 329 330 331 333 330 323 321 324 324 318 322 322 312 307 288 278
201 198 207 234 231 233 264 285 275 263 273 266 275 305 314 277 272 298 304 313 321 323 328 329 326 324 322 325 326 329 329 329 325 323 327 327 325 324 323 321 319 312 303 303
Height
1480 1483 1484 1482 1481 1481 1480 1479 1479 1478 1477 1480 1480 1481 1481 1482 1482 1483 1484 1485 1486 1487 1488 1488 1488 1489 1490 1491 1492 1493 1495 1497 1499 1501 1503 1504 1506 1508 1510 1512 1513 1515 1516 1517
1480 1483 1482 1481 1480 1480 1480 1481 1479 1480 1479 1480 1479 1479 1479 1480 1481 1482 1483 1484 1485 1486 1486 1486 1487 1487 1488 1489 1490 1491 1493 1494 1496 1498 1500 1502 1504 1505 1507 1509 1510 1512 1513 1514
1480 1481 1480 1480 1480 1480 1479 1481 1481 1482 1482 1480 1481 1481 1479 1479 1480 1481 1482 1484 1484 1484 1485 1485 1485 1485 1486 1487 1488 1489 1491 1492 1494 1496 1498 1500 1501 1503 1504 1506 1507 1509 1510 1511
1480 1480 1480 1480 1481 1481 1481 1479 1480 1481 1486 1486 1481 1486 1478 1477 1479 1479 1481 1482 1482 1483 1483 1484 1484 1484 1484 1485 1486 1487 1489 1490 1492 1494 1495 1496 1497 1498 1500 1502 1504 1505 1507 1509
1481 1480 1481 1481 1482 1482 1481 1480 1480 1481 1483 1486 1481 1486 1479 1475 1477 1478 1479 1480 1480 1481 1482 1482 1483 1483 1483 1484 1484 1485 1487 1488 1490 1491 1493 1494 1495 1496 1498 1499 1500 1502 1504 1505
1482 1481 1482 1482 1482 1482 1481 1481 1480 1481 1484 1489 1479 1483 1479 1477 1475 1475 1476 1478 1478 1479 1480 1481 1481 1481 1482 1482 1483 1484 1485 1486 1488 1489 1490 1491 1492 1493 1495 1496 1497 1498 1500 1501
1482 1482 1483 1483 1483 1483 1483 1486 1490 1488 1488 1483 1474 1479 1479 1475 1473 1474 1475 1476 1477 1478 1478 1479 1479 1480 1480 1480 1481 1482 1482 1483 1484 1486 1487 1488 1489 1491 1492 1493 1494 1495 1496 1497
1484 1484 1484 1484 1484 1486 1484 1484 1490 1491 1483 1478 1478 1479 1478 1474 1474 1474 1475 1475 1476 1476 1477 1477 1478 1478 1479 1479 1480 1480 1480 1481 1482 1483 1484 1485 1486 1488 1489 1490 1491 1491 1492 1493
1486 1484 1484 1484 1484 1485 1484 1485 1483 1488 1486 1486 1479 1476 1476 1474 1474 1475 1476 1476 1476 1476 1476 1477 1477 1477 1477 1477 1477 1478 1478 1478 1479 1480 1481 1482 1483 1484 1485 1486 1487 1488 1489 1490
1487 1490 1485 1485 1485 1485 1486 1485 1489 1489 1488 1483 1473 1473 1476 1477 1476 1476 1476 1476 1476 1476 1476 1476 1476 1476 1476 1476 1476 1476 1476 1476 1476 1477 1478 1479 1480 1480 1481 1482 1483 1484 1484 1485
1488 1491 1489 1487 1488 1487 1488 1488 1488 1487 1485 1484 1480 1478 1474 1473 1474 1476 1476 1476 1476 1476 1475 1475 1475 1475 1475 1474 1474 1474 1474 1474 1474 1474 1475 1476 1476 1477 1478 1478 1479 1479 1480 1481
1488 1490 1491 1488 1488 1487 1487 1488 1489 1492 1488 1484 1483 1483 1476 1475 1475 1475 1476 1476 1476 1476 1475 1474 1474 1474 1473 1473 1472 1472 1472 1471 1472 1472 1472 1472 1473 1473 1474 1474 1475 1476 1476 1477
1490 1493 1494 1489 1492 1492 1491 1489 1490 1491 1489 1486 1484 1483 1477 1476 1476 1476 1476 1476 1476 1475 1474 1474 1473 1472 1472 1471 1471 1470 1469 1469 1469 1469 1469 1469 1469 1470 1470 1471 1471 1471 1472 1472
1489 1493 1494 1490 1487 1490 1492 1490 1490 1491 1491 1486 1482 1478 1477 1476 1477 1477 1476 1476 1475 1475 1474 1473 1472 1471 1471 1470 1469 1468 1467 1467 1466 1466 1466 1466 1466 1466 1466 1467 1467 1467 1467 1468
1489 1492 1491 1489 1486 1487 1487 1488 1489 1490 1487 1486 1479 1477 1475 1476 1476 1476 1476 1475 1474 1474 1473 1472 1471 1470 1469 1468 1467 1466 1465 1464 1463 1463 1463 1463 1463 1463 1463 1463 1463 1463 1463 1463
1489 1492 1491 1489 1485 1485 1485 1483 1484 1485 1484 1483 1480 1478 1475 1474 1474 1474 1474 1473 1473 1472 1471 1471 1470 1469 1468 1466 1465 1464 1463 1462 1461 1460 1460 1459 1459 1459 1459 1459 1459 1459 1459 1459
1490 1492 1490 1487 1486 1485 1485 1479 1479 1480 1479 1479 1478 1475 1473 1473 1473 1473 1472 1472 1471 1471 1470 1469 1469 1467 1466 1465 1463 1462 1461 1459 1458 1457 1457 1456 1456 1455 1455 1455 1455 1454 1454 1454
1488 1490 1489 1487 1487 1488 1475 1472 1473 1475 1476 1476 1474 1472 1472 1473 1472 1471 1471 1470 1469 1469 1468 1467 1466 1465 1464 1463 1461 1460 1458 1457 1456 1454 1454 1453 1452 1452 1451 1451 1451 1450 1450 1450
1485 1487 1487 1487 1485 1477 1471 1473 1475 1476 1475 1473 1472 1471 1471 1471 1470 1469 1469 1468 1468 1467 1466 1465 1464 1463 1462 1460 1459 1457 1456 1455 1453 1452 1451 1450 1449 1448 1448 1447 1447 1447 1446 1446
1485 1485 1487 1484 1484 1480 1473 1473 1471 1474 1475 1470 1470 1470 1470 1470 1471 1469 1467 1466 1466 1465 1464 1463 1462 1461 1459 1458 1457 1455 1454 1452 1451 1450 1448 1447 1446 1446 1445 1444 1444 1443 1443 1442
1488 1488 1487 1485 1482 1477 1474 1472 1472 1478 1473 1469 1468 1468 1468 1469 1470 1468 1466 1465 1464 1463 1462 1461 1460 1459 1458 1456 1455 1453 1451 1450 1449 1447 1446 1445 1444 1443 1442 1441 1440 1439 1439 1438
1483 1485 1485 1482 1481 1478 1474 1473 1474 1472 1469 1468 1467 1467 1467 1467 1466 1465 1464 1463 1462 1461 1460 1459 1458 1456 1456 1454 1453 1451 1449 1448 1446 1445 1443 1442 1441 1440 1439 1438 1437 1436 1435 1434
1478 1478 1476 1477 1475 1471 1470 1469 1468 1468 1467 1466 1466 1465 1465 1464 1464 1463 1462 1461 1460 1459 1458 1457 1456 1454 1453 1452 1450 1448 1447 1446 1444 1442 1441 1440 1438 1437 1436 1435 1434 1433 1432 1432
1474 1473 1474 1473 1469 1467 1467 1467 1466 1466 1465 1465 1464 1464 1463 1462 1462 1461 1460 1459 1458 1457 1456 1455 1454 1452 1451 1450 1448 1447 1445 1443 1442 1440 1439 1437 1436 1435 1434 1433 1432 1431 1430 1429
1471 1472 1472 1471 1468 1466 1464 1464 1464 1464 1463 1463 1462 1462 1461 1460 1460 1459 1458 1457 1457 1456 1455 1453 1452 1450 1449 1447 1446 1445 1443 1441 1440 1438 1437 1435 1434 1433 1431 1430 1430 1429 1428 1427
1468 1469 1470 1466 1464 1464 1462 1461 1461 1461 1460 1460 1459 1459 1459 1458 1458 1457 1456 1456 1455 1454 1453 1451 1450 1448 1447 1445 1444 1442 1441 1439 1438 1436 1435 1433 1432 1431 1429 1428 1427 1426 1426 1424